Time,TemperatureF,DewpointF,PressureIn,WindDirection,WindDirectionDegrees,WindSpeedMPH,WindSpeedGustMPH,Humidity,HourlyPrecipIn,Conditions,Clouds,dailyrainin,SoftwareType,DateUTC
2013-07-19 00:00:00,80.1,73.7,29.94,SW,220,0.0,1.0,81,0.00,,,0.00,Wunderground v.1.15,2013-07-19 04:00:00,
2013-07-19 00:01:00,80.1,73.7,29.94,SW,217,0.0,1.0,81,0.00,,,0.00,Wunderground v.1.15,2013-07-19 04:01:00,
2013-07-19 00:02:00,80.1,73.7,29.94,SW,217,0.0,2.0,81,0.00,,,0.00,Wunderground v.1.15,2013-07-19 04:02:00,
2013-07-19 00:04:00,80.1,73.7,29.94,SW,217,0.0,2.0,81,0.00,,,0.00,Wunderground v.1.15,2013-07-19 04:04:00,
2013-07-19 00:05:00,80.1,73.7,29.93,SW,219,0.0,2.0,81,0.00,,,0.00,Wunderground v.1.15,2013-07-19 04:05:00,
2013-07-19 00:07:00,80.1,73.7,29.93,SW,215,0.0,3.0,81,0.00,,,0.00,Wunderground v.1.15,2013-07-19 04:07:00,
2013-07-19 00:13:00,80.2,73.8,29.93,SW,219,1.0,3.0,81,0.00,,,0.00,Wunderground v.1.15,2013-07-19 04:13:00,
2013-07-19 00:18:00,80.2,73.5,29.93,SW,219,1.0,9.0,80,0.00,,,0.00,Wunderground v.1.15,2013-07-19 04:18:00,
2013-07-19 00:24:00,80.3,73.6,29.93,WSW,242,1.0,9.0,80,0.00,,,0.00,Wunderground v.1.15,2013-07-19 04:24:00,
2013-07-19 00:29:00,80.2,73.8,29.93,WSW,242,0.0,1.0,81,0.00,,,0.00,Wunderground v.1.15,2013-07-19 04:29:00,
2013-07-19 00:35:00,80.1,73.7,29.93,WSW,245,0.0,3.0,81,0.00,,,0.00,Wunderground v.1.15,2013-07-19 04:35:00,
2013-07-19 00:40:00,80.0,73.6,29.92,WSW,246,0.0,1.0,81,0.00,,,0.00,Wunderground v.1.15,2013-07-19 04:40:00,
2013-07-19 00:46:00,79.8,73.4,29.92,WSW,253,0.0,0.0,81,0.00,,,0.00,Wunderground v.1.15,2013-07-19 04:46:00,
2013-07-19 00:51:00,79.8,73.4,29.92,WSW,257,0.0,1.0,81,0.00,,,0.00,Wunderground v.1.15,2013-07-19 04:51:00,
2013-07-19 00:57:00,79.8,73.8,29.92,WSW,254,0.0,0.0,82,0.00,,,0.00,Wunderground v.1.15,2013-07-19 04:57:00,
2013-07-19 01:02:00,79.8,73.8,29.92,WSW,254,0.0,0.0,82,0.00,,,0.00,Wunderground v.1.15,2013-07-19 05:02:00,
2013-07-19 01:08:00,79.8,73.8,29.92,WSW,240,1.0,2.0,82,0.00,,,0.00,Wunderground v.1.15,2013-07-19 05:08:00,
2013-07-19 01:13:00,79.7,73.7,29.92,SW,226,1.0,3.0,82,0.00,,,0.00,Wunderground v.1.15,2013-07-19 05:13:00,
2013-07-19 01:19:00,79.7,73.7,29.91,WSW,241,0.0,2.0,82,0.00,,,0.00,Wunderground v.1.15,2013-07-19 05:19:00,
2013-07-19 01:25:00,79.7,73.7,29.91,West,271,0.0,2.0,82,0.00,,,0.00,Wunderground v.1.15,2013-07-19 05:25:00,
2013-07-19 01:30:00,79.6,73.6,29.91,West,271,1.0,2.0,82,0.00,,,0.00,Wunderground v.1.15,2013-07-19 05:30:00,
2013-07-19 01:36:00,79.6,73.6,29.91,WSW,256,1.0,1.0,82,0.00,,,0.00,Wunderground v.1.15,2013-07-19 05:36:00,
2013-07-19 01:41:00,79.6,73.6,29.91,WSW,257,0.0,1.0,82,0.00,,,0.00,Wunderground v.1.15,2013-07-19 05:41:00,
2013-07-19 01:47:00,79.6,73.6,29.91,WSW,255,0.0,4.0,82,0.00,,,0.00,Wunderground v.1.15,2013-07-19 05:47:00,
2013-07-19 01:52:00,79.6,73.6,29.91,WSW,256,0.0,4.0,82,0.00,,,0.00,Wunderground v.1.15,2013-07-19 05:52:00,
2013-07-19 01:58:00,79.7,73.7,29.90,West,265,1.0,1.0,82,0.00,,,0.00,Wunderground v.1.15,2013-07-19 05:58:00,
2013-07-19 02:03:00,79.7,73.7,29.90,West,260,1.0,1.0,82,0.00,,,0.00,Wunderground v.1.15,2013-07-19 06:03:00,
2013-07-19 02:09:00,79.8,73.8,29.90,West,260,0.0,1.0,82,0.00,,,0.00,Wunderground v.1.15,2013-07-19 06:09:00,
2013-07-19 02:15:00,79.7,73.7,29.90,West,274,0.0,3.0,82,0.00,,,0.00,Wunderground v.1.15,2013-07-19 06:15:00,
2013-07-19 02:21:00,79.6,74.0,29.90,SSW,203,1.0,5.0,83,0.00,,,0.00,Wunderground v.1.15,2013-07-19 06:21:00,
2013-07-19 02:27:00,79.4,73.8,29.90,WSW,256,1.0,1.0,83,0.00,,,0.00,Wunderground v.1.15,2013-07-19 06:27:00,
2013-07-19 02:33:00,79.3,73.7,29.90,SW,217,1.0,4.0,83,0.00,,,0.00,Wunderground v.1.15,2013-07-19 06:33:00,
2013-07-19 02:38:00,79.2,73.9,29.90,SW,216,1.0,1.0,84,0.00,,,0.00,Wunderground v.1.15,2013-07-19 06:38:00,
2013-07-19 02:43:00,79.0,73.7,29.90,NW,316,0.0,1.0,84,0.00,,,0.00,Wunderground v.1.15,2013-07-19 06:43:00,
2013-07-19 02:49:00,78.8,73.6,29.89,WSW,251,0.0,0.0,84,0.00,,,0.00,Wunderground v.1.15,2013-07-19 06:49:00,
2013-07-19 02:55:00,78.7,73.8,29.89,West,261,0.0,6.0,85,0.00,,,0.00,Wunderground v.1.15,2013-07-19 06:55:00,
2013-07-19 03:00:00,78.6,73.7,29.89,West,267,1.0,1.0,85,0.00,,,0.00,Wunderground v.1.15,2013-07-19 07:00:00,
2013-07-19 03:06:00,78.4,73.5,29.89,West,267,0.0,0.0,85,0.00,,,0.00,Wunderground v.1.15,2013-07-19 07:06:00,
2013-07-19 03:11:00,78.2,73.7,29.89,West,265,0.0,1.0,86,0.00,,,0.00,Wunderground v.1.15,2013-07-19 07:11:00,
2013-07-19 03:17:00,78.1,73.6,29.88,West,267,0.0,0.0,86,0.00,,,0.00,Wunderground v.1.15,2013-07-19 07:17:00,
2013-07-19 03:22:00,78.0,73.5,29.88,West,268,1.0,6.0,86,0.00,,,0.00,Wunderground v.1.15,2013-07-19 07:22:00,
2013-07-19 03:28:00,77.9,73.4,29.88,WNW,286,1.0,1.0,86,0.00,,,0.00,Wunderground v.1.15,2013-07-19 07:28:00,
2013-07-19 03:33:00,77.8,73.3,29.88,WNW,284,1.0,2.0,86,0.00,,,0.00,Wunderground v.1.15,2013-07-19 07:33:00,
2013-07-19 03:38:00,77.8,73.6,29.88,WNW,283,0.0,1.0,87,0.00,,,0.00,Wunderground v.1.15,2013-07-19 07:38:00,
2013-07-19 03:43:00,77.6,73.4,29.87,WNW,286,0.0,3.0,87,0.00,,,0.00,Wunderground v.1.15,2013-07-19 07:43:00,
2013-07-19 03:49:00,77.5,73.3,29.87,WNW,286,0.0,1.0,87,0.00,,,0.00,Wunderground v.1.15,2013-07-19 07:49:00,
2013-07-19 03:55:00,77.4,73.2,29.87,WNW,286,1.0,2.0,87,0.00,,,0.00,Wunderground v.1.15,2013-07-19 07:55:00,
2013-07-19 04:00:00,77.4,73.2,29.87,WNW,286,1.0,3.0,87,0.00,,,0.00,Wunderground v.1.15,2013-07-19 08:00:00,
2013-07-19 04:06:00,77.3,73.5,29.86,WNW,287,1.0,1.0,88,0.00,,,0.00,Wunderground v.1.15,2013-07-19 08:06:00,
2013-07-19 04:11:00,77.3,73.1,29.86,WNW,286,1.0,2.0,87,0.00,,,0.00,Wunderground v.1.15,2013-07-19 08:11:00,
2013-07-19 04:17:00,77.3,73.1,29.86,WNW,285,1.0,3.0,87,0.00,,,0.00,Wunderground v.1.15,2013-07-19 08:17:00,
2013-07-19 04:22:00,77.2,73.4,29.86,WNW,283,1.0,3.0,88,0.00,,,0.00,Wunderground v.1.15,2013-07-19 08:22:00,
2013-07-19 04:28:00,77.2,73.4,29.86,WSW,244,0.0,2.0,88,0.00,,,0.00,Wunderground v.1.15,2013-07-19 08:28:00,
2013-07-19 04:33:00,77.1,73.3,29.86,WSW,240,0.0,2.0,88,0.00,,,0.00,Wunderground v.1.15,2013-07-19 08:33:00,
2013-07-19 04:39:00,77.1,73.3,29.85,WSW,242,0.0,1.0,88,0.00,,,0.00,Wunderground v.1.15,2013-07-19 08:39:00,
2013-07-19 04:45:00,77.0,73.2,29.85,WSW,242,0.0,1.0,88,0.00,,,0.00,Wunderground v.1.15,2013-07-19 08:45:00,
2013-07-19 04:50:00,77.0,73.2,29.85,WSW,246,0.0,3.0,88,0.00,,,0.00,Wunderground v.1.15,2013-07-19 08:50:00,
2013-07-19 04:56:00,76.9,73.1,29.85,WSW,245,0.0,0.0,88,0.00,,,0.00,Wunderground v.1.15,2013-07-19 08:56:00,
2013-07-19 05:01:00,76.9,73.1,29.85,WSW,245,0.0,0.0,88,0.00,,,0.00,Wunderground v.1.15,2013-07-19 09:01:00,
2013-07-19 05:06:00,76.8,73.0,29.85,WSW,245,0.0,0.0,88,0.00,,,0.00,Wunderground v.1.15,2013-07-19 09:06:00,
2013-07-19 05:11:00,76.8,73.3,29.85,WSW,250,0.0,2.0,89,0.00,,,0.00,Wunderground v.1.15,2013-07-19 09:11:00,
2013-07-19 05:17:00,76.7,73.2,29.85,WSW,250,0.0,0.0,89,0.00,,,0.00,Wunderground v.1.15,2013-07-19 09:17:00,
2013-07-19 05:22:00,76.7,73.2,29.85,WSW,253,0.0,0.0,89,0.00,,,0.00,Wunderground v.1.15,2013-07-19 09:22:00,
2013-07-19 05:28:00,76.6,73.1,29.84,West,265,0.0,1.0,89,0.00,,,0.00,Wunderground v.1.15,2013-07-19 09:28:00,
2013-07-19 05:33:00,76.6,73.1,29.85,West,261,0.0,1.0,89,0.00,,,0.00,Wunderground v.1.15,2013-07-19 09:33:00,
2013-07-19 05:39:00,76.6,73.1,29.85,West,263,1.0,1.0,89,0.00,,,0.00,Wunderground v.1.15,2013-07-19 09:39:00,
2013-07-19 05:45:00,76.6,73.1,29.85,West,263,1.0,1.0,89,0.00,,,0.00,Wunderground v.1.15,2013-07-19 09:45:00,
2013-07-19 05:50:00,76.5,73.0,29.85,West,263,0.0,3.0,89,0.00,,,0.00,Wunderground v.1.15,2013-07-19 09:50:00,
2013-07-19 05:56:00,76.5,73.0,29.85,West,263,0.0,0.0,89,0.00,,,0.00,Wunderground v.1.15,2013-07-19 09:56:00,
2013-07-19 06:01:00,76.4,72.9,29.85,West,263,0.0,0.0,89,0.00,,,0.00,Wunderground v.1.15,2013-07-19 10:01:00,
2013-07-19 06:07:00,76.3,73.1,29.85,West,263,0.0,0.0,90,0.00,,,0.00,Wunderground v.1.15,2013-07-19 10:07:00,
2013-07-19 06:12:00,76.3,73.1,29.85,West,263,0.0,0.0,90,0.00,,,0.00,Wunderground v.1.15,2013-07-19 10:12:00,
2013-07-19 06:18:00,76.2,73.1,29.85,West,263,0.0,0.0,90,0.00,,,0.00,Wunderground v.1.15,2013-07-19 10:18:00,
2013-07-19 06:23:00,76.2,73.1,29.85,West,263,0.0,2.0,90,0.00,,,0.00,Wunderground v.1.15,2013-07-19 10:23:00,
2013-07-19 06:29:00,76.1,73.0,29.85,WSW,250,0.0,3.0,90,0.00,,,0.00,Wunderground v.1.15,2013-07-19 10:29:00,
2013-07-19 06:35:00,76.2,73.1,29.85,WSW,250,0.0,3.0,90,0.00,,,0.00,Wunderground v.1.15,2013-07-19 10:35:00,
2013-07-19 06:40:00,76.2,73.1,29.85,WSW,249,0.0,0.0,90,0.00,,,0.00,Wunderground v.1.15,2013-07-19 10:40:00,
2013-07-19 06:46:00,76.2,73.1,29.85,WSW,250,0.0,0.0,90,0.00,,,0.00,Wunderground v.1.15,2013-07-19 10:46:00,
2013-07-19 06:51:00,76.3,73.1,29.85,WSW,249,0.0,1.0,90,0.00,,,0.00,Wunderground v.1.15,2013-07-19 10:51:00,
2013-07-19 06:56:00,76.4,73.2,29.85,WSW,249,0.0,0.0,90,0.00,,,0.00,Wunderground v.1.15,2013-07-19 10:56:00,
2013-07-19 07:02:00,76.4,73.2,29.85,WSW,249,0.0,0.0,90,0.00,,,0.00,Wunderground v.1.15,2013-07-19 11:02:00,
2013-07-19 07:07:00,76.5,73.3,29.85,WSW,249,0.0,1.0,90,0.00,,,0.00,Wunderground v.1.15,2013-07-19 11:07:00,
2013-07-19 07:13:00,76.6,73.4,29.85,WSW,252,0.0,1.0,90,0.00,,,0.00,Wunderground v.1.15,2013-07-19 11:13:00,
2013-07-19 07:15:00,76.6,73.4,29.85,WSW,250,0.0,2.0,90,0.00,,,0.00,Wunderground v.1.15,2013-07-19 11:15:00,
2013-07-19 07:20:00,76.7,73.5,29.85,WSW,250,0.0,1.0,90,0.00,,,0.00,Wunderground v.1.15,2013-07-19 11:20:00,
2013-07-19 07:25:00,76.8,73.6,29.85,WSW,255,0.0,3.0,90,0.00,,,0.00,Wunderground v.1.15,2013-07-19 11:25:00,
2013-07-19 07:31:00,77.0,73.8,29.85,West,264,1.0,1.0,90,0.00,,,0.00,Wunderground v.1.15,2013-07-19 11:31:00,
2013-07-19 07:36:00,77.2,73.7,29.85,West,275,1.0,3.0,89,0.00,,,0.00,Wunderground v.1.15,2013-07-19 11:36:00,
2013-07-19 07:42:00,77.5,74.0,29.85,WNW,286,1.0,3.0,89,0.00,,,0.00,Wunderground v.1.15,2013-07-19 11:42:00,
2013-07-19 07:47:00,77.7,74.2,29.85,South,169,1.0,4.0,89,0.00,,,0.00,Wunderground v.1.15,2013-07-19 11:47:00,
2013-07-19 07:53:00,77.9,74.4,29.85,WSW,240,1.0,4.0,89,0.00,,,0.00,Wunderground v.1.15,2013-07-19 11:53:00,
2013-07-19 07:59:00,78.0,74.2,29.85,West,271,1.0,3.0,88,0.00,,,0.00,Wunderground v.1.15,2013-07-19 11:59:00,
2013-07-19 08:04:00,78.3,74.5,29.85,West,273,1.0,4.0,88,0.00,,,0.00,Wunderground v.1.15,2013-07-19 12:04:00,
2013-07-19 08:09:00,78.5,74.6,29.85,WNW,291,1.0,3.0,88,0.00,,,0.00,Wunderground v.1.15,2013-07-19 12:09:00,
2013-07-19 08:15:00,78.7,74.5,29.86,West,261,2.0,2.0,87,0.00,,,0.00,Wunderground v.1.15,2013-07-19 12:15:00,
2013-07-19 08:20:00,78.9,74.7,29.85,West,276,2.0,2.0,87,0.00,,,0.00,Wunderground v.1.15,2013-07-19 12:20:00,
2013-07-19 08:26:00,79.2,75.0,29.85,WSW,248,1.0,2.0,87,0.00,,,0.00,Wunderground v.1.15,2013-07-19 12:26:00,
2013-07-19 08:31:00,79.3,74.7,29.85,WNW,300,2.0,3.0,86,0.00,,,0.00,Wunderground v.1.15,2013-07-19 12:31:00,
2013-07-19 08:37:00,79.6,74.7,29.85,WNW,298,1.0,1.0,85,0.00,,,0.00,Wunderground v.1.15,2013-07-19 12:37:00,
2013-07-19 08:42:00,79.8,74.9,29.85,SW,232,1.0,3.0,85,0.00,,,0.00,Wunderground v.1.15,2013-07-19 12:42:00,
2013-07-19 08:48:00,80.1,74.8,29.85,WNW,296,2.0,3.0,84,0.00,,,0.00,Wunderground v.1.15,2013-07-19 12:48:00,
2013-07-19 08:54:00,80.5,75.2,29.84,NW,323,3.0,4.0,84,0.00,,,0.00,Wunderground v.1.15,2013-07-19 12:54:00,
2013-07-19 08:59:00,80.8,75.5,29.85,West,271,2.0,5.0,84,0.00,,,0.00,Wunderground v.1.15,2013-07-19 12:59:00,
2013-07-19 09:05:00,81.3,76.0,29.84,West,264,1.0,1.0,84,0.00,,,0.00,Wunderground v.1.15,2013-07-19 13:05:00,
2013-07-19 09:10:00,81.6,75.9,29.85,West,270,1.0,3.0,83,0.00,,,0.00,Wunderground v.1.15,2013-07-19 13:10:00,
2013-07-19 09:16:00,82.1,76.1,29.85,WSW,240,1.0,3.0,82,0.00,,,0.00,Wunderground v.1.15,2013-07-19 13:16:00,
2013-07-19 09:21:00,82.4,76.3,29.84,WNW,296,2.0,7.0,82,0.00,,,0.00,Wunderground v.1.15,2013-07-19 13:21:00,
2013-07-19 09:26:00,82.5,75.7,29.84,WSW,240,3.0,6.0,80,0.00,,,0.00,Wunderground v.1.15,2013-07-19 13:26:00,
2013-07-19 09:32:00,82.8,76.4,29.84,WNW,288,3.0,6.0,81,0.00,,,0.00,Wunderground v.1.15,2013-07-19 13:32:00,
2013-07-19 09:37:00,83.0,75.8,29.84,South,178,1.0,3.0,79,0.00,,,0.00,Wunderground v.1.15,2013-07-19 13:37:00,
2013-07-19 09:42:00,83.4,76.2,29.85,WNW,283,2.0,5.0,79,0.00,,,0.00,Wunderground v.1.15,2013-07-19 13:42:00,
2013-07-19 09:48:00,83.5,75.9,29.84,WNW,303,2.0,3.0,78,0.00,,,0.00,Wunderground v.1.15,2013-07-19 13:48:00,
2013-07-19 09:53:00,83.8,76.6,29.84,West,280,2.0,4.0,79,0.00,,,0.00,Wunderground v.1.15,2013-07-19 13:53:00,
2013-07-19 09:59:00,84.1,76.5,29.84,West,279,2.0,10.0,78,0.00,,,0.00,Wunderground v.1.15,2013-07-19 13:59:00,
2013-07-19 10:04:00,84.3,76.3,29.84,West,271,3.0,10.0,77,0.00,,,0.00,Wunderground v.1.15,2013-07-19 14:04:00,
2013-07-19 10:12:00,84.7,77.1,29.84,WSW,238,2.0,5.0,78,0.00,,,0.00,Wunderground v.1.15,2013-07-19 14:12:00,
2013-07-19 10:17:00,84.9,76.5,29.84,West,270,2.0,2.0,76,0.00,,,0.00,Wunderground v.1.15,2013-07-19 14:17:00,
2013-07-19 10:23:00,85.0,76.6,29.83,West,275,2.0,3.0,76,0.00,,,0.00,Wunderground v.1.15,2013-07-19 14:23:00,
2013-07-19 10:30:00,85.4,77.0,29.83,West,277,2.0,3.0,76,0.00,,,0.00,Wunderground v.1.15,2013-07-19 14:30:00,
2013-07-19 10:36:00,85.6,76.8,29.83,NW,309,2.0,11.0,75,0.00,,,0.00,Wunderground v.1.15,2013-07-19 14:36:00,
2013-07-19 10:41:00,85.7,76.5,29.83,West,281,4.0,11.0,74,0.00,,,0.00,Wunderground v.1.15,2013-07-19 14:41:00,
2013-07-19 10:46:00,85.7,76.0,29.83,West,272,5.0,10.0,73,0.00,,,0.00,Wunderground v.1.15,2013-07-19 14:46:00,
2013-07-19 10:52:00,85.8,75.7,29.83,West,273,5.0,10.0,72,0.00,,,0.00,Wunderground v.1.15,2013-07-19 14:52:00,
2013-07-19 10:57:00,86.2,76.5,29.83,West,275,4.0,11.0,73,0.00,,,0.00,Wunderground v.1.15,2013-07-19 14:57:00,
2013-07-19 11:03:00,86.5,76.4,29.83,SW,234,4.0,11.0,72,0.00,,,0.00,Wunderground v.1.15,2013-07-19 15:03:00,
2013-07-19 11:09:00,86.7,77.0,29.82,West,280,5.0,9.0,73,0.00,,,0.00,Wunderground v.1.15,2013-07-19 15:09:00,
2013-07-19 11:14:00,87.0,76.0,29.82,WSW,244,4.0,9.0,70,0.00,,,0.00,Wunderground v.1.15,2013-07-19 15:14:00,
2013-07-19 11:20:00,87.1,76.1,29.82,WSW,252,4.0,6.0,70,0.00,,,0.00,Wunderground v.1.15,2013-07-19 15:20:00,
2013-07-19 11:25:00,87.3,75.9,29.82,NW,323,4.0,9.0,69,0.00,,,0.00,Wunderground v.1.15,2013-07-19 15:25:00,
2013-07-19 11:30:00,87.5,76.5,29.82,WNW,284,4.0,9.0,70,0.00,,,0.00,Wunderground v.1.15,2013-07-19 15:30:00,
2013-07-19 11:36:00,87.5,75.2,29.82,West,274,5.0,6.0,67,0.00,,,0.00,Wunderground v.1.15,2013-07-19 15:36:00,
2013-07-19 11:41:00,87.4,75.1,29.82,West,280,6.0,6.0,67,0.00,,,0.00,Wunderground v.1.15,2013-07-19 15:41:00,
2013-07-19 11:48:00,87.6,75.7,29.81,WSW,256,5.0,6.0,68,0.00,,,0.00,Wunderground v.1.15,2013-07-19 15:48:00,
2013-07-19 11:53:00,87.8,75.5,29.81,West,277,4.0,10.0,67,0.00,,,0.00,Wunderground v.1.15,2013-07-19 15:53:00,
2013-07-19 11:59:00,88.1,75.8,29.81,West,275,4.0,9.0,67,0.00,,,0.00,Wunderground v.1.15,2013-07-19 15:59:00,
2013-07-19 12:05:00,88.4,75.1,29.81,WNW,300,5.0,13.0,65,0.00,,,0.00,Wunderground v.1.15,2013-07-19 16:05:00,
2013-07-19 12:10:00,88.6,76.2,29.81,WNW,300,4.0,7.0,67,0.00,,,0.00,Wunderground v.1.15,2013-07-19 16:10:00,
2013-07-19 12:16:00,89.0,76.2,29.81,WNW,303,4.0,5.0,66,0.00,,,0.00,Wunderground v.1.15,2013-07-19 16:16:00,
2013-07-19 12:21:00,89.2,75.9,29.81,West,271,5.0,7.0,65,0.00,,,0.00,Wunderground v.1.15,2013-07-19 16:21:00,
2013-07-19 12:27:00,89.3,75.0,29.80,WNW,292,5.0,7.0,63,0.00,,,0.00,Wunderground v.1.15,2013-07-19 16:27:00,
2013-07-19 12:32:00,89.3,74.6,29.80,West,275,7.0,15.0,62,0.00,,,0.00,Wunderground v.1.15,2013-07-19 16:32:00,
2013-07-19 12:38:00,89.0,73.8,29.79,WNW,295,8.0,8.0,61,0.00,,,0.00,Wunderground v.1.15,2013-07-19 16:38:00,
2013-07-19 12:43:00,89.0,74.3,29.79,WNW,291,9.0,9.0,62,0.00,,,0.00,Wunderground v.1.15,2013-07-19 16:43:00,
2013-07-19 12:49:00,89.3,74.1,29.79,West,264,8.0,13.0,61,0.00,,,0.00,Wunderground v.1.15,2013-07-19 16:49:00,
2013-07-19 12:55:00,89.5,74.8,29.79,West,273,6.0,13.0,62,0.00,,,0.00,Wunderground v.1.15,2013-07-19 16:55:00,
2013-07-19 13:00:00,89.7,74.9,29.79,WNW,290,6.0,10.0,62,0.00,,,0.00,Wunderground v.1.15,2013-07-19 17:00:00,
2013-07-19 13:06:00,89.5,73.8,29.79,WNW,292,6.0,7.0,60,0.00,,,0.00,Wunderground v.1.15,2013-07-19 17:06:00,
2013-07-19 13:11:00,89.6,74.4,29.78,West,275,7.0,7.0,61,0.00,,,0.00,Wunderground v.1.15,2013-07-19 17:11:00,
2013-07-19 13:16:00,89.9,74.6,29.78,NW,318,5.0,5.0,61,0.00,,,0.00,Wunderground v.1.15,2013-07-19 17:16:00,
2013-07-19 13:21:00,90.2,73.4,29.78,WNW,283,6.0,12.0,58,0.00,,,0.00,Wunderground v.1.15,2013-07-19 17:21:00,
2013-07-19 13:27:00,90.1,75.3,29.78,WNW,288,7.0,7.0,62,0.00,,,0.00,Wunderground v.1.15,2013-07-19 17:27:00,
2013-07-19 13:32:00,90.5,76.2,29.77,West,267,5.0,11.0,63,0.00,,,0.00,Wunderground v.1.15,2013-07-19 17:32:00,
2013-07-19 13:37:00,90.4,75.1,29.77,WNW,286,5.0,9.0,61,0.00,,,0.00,Wunderground v.1.15,2013-07-19 17:37:00,
2013-07-19 13:43:00,90.2,75.4,29.77,West,268,5.0,9.0,62,0.00,,,0.00,Wunderground v.1.15,2013-07-19 17:43:00,
2013-07-19 13:48:00,90.3,75.5,29.76,West,275,4.0,11.0,62,0.00,,,0.00,Wunderground v.1.15,2013-07-19 17:48:00,
2013-07-19 13:53:00,90.5,75.2,29.76,WSW,246,3.0,11.0,61,0.00,,,0.00,Wunderground v.1.15,2013-07-19 17:53:00,
2013-07-19 13:59:00,90.2,74.9,29.76,West,269,4.0,5.0,61,0.00,,,0.00,Wunderground v.1.15,2013-07-19 17:59:00,
2013-07-19 14:04:00,90.1,75.3,29.76,WNW,299,4.0,7.0,62,0.00,,,0.00,Wunderground v.1.15,2013-07-19 18:04:00,
2013-07-19 14:09:00,90.3,74.5,29.75,West,265,4.0,7.0,60,0.00,,,0.00,Wunderground v.1.15,2013-07-19 18:09:00,
2013-07-19 14:15:00,90.4,74.6,29.75,West,267,5.0,5.0,60,0.00,,,0.00,Wunderground v.1.15,2013-07-19 18:15:00,
2013-07-19 14:20:00,90.4,75.6,29.76,WNW,294,5.0,9.0,62,0.00,,,0.00,Wunderground v.1.15,2013-07-19 18:20:00,
2013-07-19 14:26:00,90.4,75.1,29.75,West,273,5.0,13.0,61,0.00,,,0.00,Wunderground v.1.15,2013-07-19 18:26:00,
2013-07-19 14:31:00,90.6,74.8,29.75,SSW,202,6.0,13.0,60,0.00,,,0.00,Wunderground v.1.15,2013-07-19 18:31:00,
2013-07-19 14:37:00,90.3,75.0,29.75,West,272,5.0,6.0,61,0.00,,,0.00,Wunderground v.1.15,2013-07-19 18:37:00,
2013-07-19 14:42:00,90.5,75.7,29.74,SSW,194,3.0,6.0,62,0.00,,,0.00,Wunderground v.1.15,2013-07-19 18:42:00,
2013-07-19 14:49:00,90.4,75.1,29.74,WNW,288,3.0,8.0,61,0.00,,,0.00,Wunderground v.1.15,2013-07-19 18:49:00,
2013-07-19 14:54:00,90.0,75.7,29.74,West,276,4.0,9.0,63,0.00,,,0.00,Wunderground v.1.15,2013-07-19 18:54:00,
2013-07-19 14:59:00,90.0,75.7,29.74,WNW,292,4.0,7.0,63,0.00,,,0.00,Wunderground v.1.15,2013-07-19 18:59:00,
2013-07-19 15:04:00,90.3,76.0,29.73,West,266,5.0,10.0,63,0.00,,,0.00,Wunderground v.1.15,2013-07-19 19:04:00,
2013-07-19 15:09:00,90.6,74.8,29.73,West,260,7.0,13.0,60,0.00,,,0.00,Wunderground v.1.15,2013-07-19 19:09:00,
2013-07-19 15:14:00,90.9,76.1,29.73,NW,323,7.0,13.0,62,0.00,,,0.00,Wunderground v.1.15,2013-07-19 19:14:00,
2013-07-19 15:20:00,90.8,74.5,29.73,West,271,7.0,13.0,59,0.00,,,0.00,Wunderground v.1.15,2013-07-19 19:20:00,
2013-07-19 15:25:00,90.6,74.8,29.73,West,272,7.0,13.0,60,0.00,,,0.00,Wunderground v.1.15,2013-07-19 19:25:00,
2013-07-19 15:30:00,90.8,75.5,29.73,NW,308,5.0,12.0,61,0.00,,,0.00,Wunderground v.1.15,2013-07-19 19:30:00,
2013-07-19 15:35:00,91.3,76.0,29.73,WNW,296,4.0,4.0,61,0.00,,,0.00,Wunderground v.1.15,2013-07-19 19:35:00,
2013-07-19 15:40:00,91.3,74.4,29.73,West,277,6.0,11.0,58,0.00,,,0.00,Wunderground v.1.15,2013-07-19 19:40:00,
2013-07-19 15:46:00,91.4,75.6,29.73,WSW,250,5.0,5.0,60,0.00,,,0.00,Wunderground v.1.15,2013-07-19 19:46:00,
2013-07-19 15:52:00,91.4,74.5,29.73,West,265,6.0,17.0,58,0.00,,,0.00,Wunderground v.1.15,2013-07-19 19:52:00,
2013-07-19 15:57:00,91.4,75.1,29.73,WNW,295,8.0,10.0,59,0.00,,,0.00,Wunderground v.1.15,2013-07-19 19:57:00,
2013-07-19 16:02:00,91.5,74.1,29.73,West,268,8.0,13.0,57,0.00,,,0.00,Wunderground v.1.15,2013-07-19 20:02:00,
2013-07-19 16:08:00,91.6,74.2,29.73,NW,307,8.0,15.0,57,0.00,,,0.00,Wunderground v.1.15,2013-07-19 20:08:00,
2013-07-19 16:14:00,91.6,75.2,29.72,West,275,7.0,15.0,59,0.00,,,0.00,Wunderground v.1.15,2013-07-19 20:14:00,
2013-07-19 16:19:00,91.6,74.7,29.72,West,280,5.0,13.0,58,0.00,,,0.00,Wunderground v.1.15,2013-07-19 20:19:00,
2013-07-19 16:25:00,91.7,74.8,29.72,WNW,286,6.0,6.0,58,0.00,,,0.00,Wunderground v.1.15,2013-07-19 20:25:00,
2013-07-19 16:31:00,91.8,75.4,29.72,WNW,288,5.0,10.0,59,0.00,,,0.00,Wunderground v.1.15,2013-07-19 20:31:00,
2013-07-19 16:36:00,91.8,74.9,29.72,West,272,4.0,4.0,58,0.00,,,0.00,Wunderground v.1.15,2013-07-19 20:36:00,
2013-07-19 16:41:00,91.9,75.5,29.72,West,273,4.0,14.0,59,0.00,,,0.00,Wunderground v.1.15,2013-07-19 20:41:00,
2013-07-19 16:47:00,92.1,75.2,29.72,WSW,256,5.0,11.0,58,0.00,,,0.00,Wunderground v.1.15,2013-07-19 20:47:00,
2013-07-19 16:52:00,92.1,75.2,29.72,WNW,288,4.0,11.0,58,0.00,,,0.00,Wunderground v.1.15,2013-07-19 20:52:00,
2013-07-19 16:57:00,91.7,74.3,29.72,WNW,286,6.0,7.0,57,0.00,,,0.00,Wunderground v.1.15,2013-07-19 20:57:00,
2013-07-19 17:04:00,90.5,73.7,29.72,WNW,284,7.0,10.0,58,0.00,,,0.00,Wunderground v.1.15,2013-07-19 21:04:00,
2013-07-19 17:10:00,89.6,70.2,29.72,West,271,6.0,14.0,53,0.00,,,0.00,Wunderground v.1.15,2013-07-19 21:10:00,
2013-07-19 17:15:00,86.0,69.0,29.73,WNW,292,11.0,14.0,57,0.00,,,0.00,Wunderground v.1.15,2013-07-19 21:15:00,
2013-07-19 17:21:00,81.4,67.6,29.74,West,272,11.0,14.0,63,0.00,,,0.00,Wunderground v.1.15,2013-07-19 21:21:00,
2013-07-19 17:27:00,79.7,67.8,29.73,West,281,4.0,5.0,67,0.00,,,0.00,Wunderground v.1.15,2013-07-19 21:27:00,
2013-07-19 17:32:00,78.9,68.3,29.72,West,276,1.0,5.0,70,0.00,,,0.00,Wunderground v.1.15,2013-07-19 21:32:00,
2013-07-19 17:38:00,78.9,69.5,29.73,SSW,199,1.0,6.0,73,0.00,,,0.00,Wunderground v.1.15,2013-07-19 21:38:00,
2013-07-19 17:44:00,79.3,69.1,29.74,SSW,202,2.0,6.0,71,0.00,,,0.00,Wunderground v.1.15,2013-07-19 21:44:00,
2013-07-19 17:49:00,79.6,70.2,29.73,SSW,194,2.0,3.0,73,0.00,,,0.00,Wunderground v.1.15,2013-07-19 21:49:00,
2013-07-19 17:55:00,80.0,70.6,29.73,SW,215,2.0,8.0,73,0.00,,,0.00,Wunderground v.1.15,2013-07-19 21:55:00,
2013-07-19 18:01:00,80.2,70.4,29.73,SSW,199,3.0,5.0,72,0.00,,,0.00,Wunderground v.1.15,2013-07-19 22:01:00,
2013-07-19 18:06:00,80.2,70.4,29.73,SSW,200,1.0,1.0,72,0.00,,,0.00,Wunderground v.1.15,2013-07-19 22:06:00,
2013-07-19 18:11:00,80.2,70.8,29.73,SSW,200,0.0,1.0,73,0.00,,,0.00,Wunderground v.1.15,2013-07-19 22:11:00,
2013-07-19 18:17:00,80.3,71.3,29.73,SSW,200,0.0,0.0,74,0.00,,,0.00,Wunderground v.1.15,2013-07-19 22:17:00,
2013-07-19 18:23:00,80.3,71.3,29.72,SSW,200,0.0,0.0,74,0.00,,,0.00,Wunderground v.1.15,2013-07-19 22:23:00,
2013-07-19 18:26:00,80.4,71.7,29.72,SSW,200,0.0,0.0,75,0.00,,,0.00,Wunderground v.1.15,2013-07-19 22:26:00,
2013-07-19 18:31:00,81.1,72.4,29.72,SSW,200,0.0,2.0,75,0.00,,,0.00,Wunderground v.1.15,2013-07-19 22:31:00,
2013-07-19 18:37:00,82.2,72.7,29.72,SSW,200,0.0,0.0,73,0.00,,,0.00,Wunderground v.1.15,2013-07-19 22:37:00,
2013-07-19 18:42:00,83.2,73.6,29.71,SSW,200,0.0,1.0,73,0.00,,,0.00,Wunderground v.1.15,2013-07-19 22:42:00,
2013-07-19 18:48:00,84.1,73.7,29.71,SW,227,1.0,3.0,71,0.00,,,0.00,Wunderground v.1.15,2013-07-19 22:48:00,
2013-07-19 18:53:00,84.5,74.1,29.71,SW,227,1.0,3.0,71,0.00,,,0.00,Wunderground v.1.15,2013-07-19 22:53:00,
2013-07-19 18:59:00,85.0,74.5,29.71,SW,227,0.0,1.0,71,0.00,,,0.00,Wunderground v.1.15,2013-07-19 22:59:00,
2013-07-19 19:05:00,85.5,75.0,29.71,SW,227,0.0,1.0,71,0.00,,,0.00,Wunderground v.1.15,2013-07-19 23:05:00,
2013-07-19 19:08:00,85.6,75.1,29.71,SW,227,0.0,0.0,71,0.00,,,0.00,Wunderground v.1.15,2013-07-19 23:08:00,
2013-07-19 19:13:00,85.9,75.4,29.71,SW,227,0.0,0.0,71,0.00,,,0.00,Wunderground v.1.15,2013-07-19 23:13:00,
2013-07-19 19:19:00,85.9,75.4,29.71,SW,227,0.0,0.0,71,0.00,,,0.00,Wunderground v.1.15,2013-07-19 23:19:00,
2013-07-19 19:25:00,85.8,76.1,29.71,SW,227,0.0,0.0,73,0.00,,,0.00,Wunderground v.1.15,2013-07-19 23:25:00,
2013-07-19 19:30:00,85.8,76.1,29.71,SW,227,0.0,0.0,73,0.00,,,0.00,Wunderground v.1.15,2013-07-19 23:30:00,
2013-07-19 19:36:00,85.8,76.1,29.71,SW,226,0.0,0.0,73,0.00,,,0.00,Wunderground v.1.15,2013-07-19 23:36:00,
2013-07-19 19:41:00,85.7,76.0,29.71,SW,223,1.0,4.0,73,0.00,,,0.00,Wunderground v.1.15,2013-07-19 23:41:00,
2013-07-19 19:47:00,85.6,76.4,29.71,SW,222,1.0,1.0,74,0.00,,,0.00,Wunderground v.1.15,2013-07-19 23:47:00,
2013-07-19 19:52:00,85.4,76.2,29.71,SW,221,1.0,3.0,74,0.00,,,0.00,Wunderground v.1.15,2013-07-19 23:52:00,
2013-07-19 19:58:00,85.0,76.2,29.71,SW,218,1.0,2.0,75,0.00,,,0.00,Wunderground v.1.15,2013-07-19 23:58:00,
2013-07-19 20:04:00,84.6,76.2,29.71,SW,215,1.0,3.0,76,0.00,,,0.00,Wunderground v.1.15,2013-07-20 00:04:00,
2013-07-19 20:09:00,84.4,76.4,29.71,SSW,210,1.0,3.0,77,0.00,,,0.00,Wunderground v.1.15,2013-07-20 00:09:00,
2013-07-19 20:15:00,84.1,76.5,29.71,SSW,210,1.0,3.0,78,0.00,,,0.00,Wunderground v.1.15,2013-07-20 00:15:00,
2013-07-19 20:21:00,83.7,76.1,29.71,SSW,209,2.0,4.0,78,0.00,,,0.00,Wunderground v.1.15,2013-07-20 00:21:00,
2013-07-19 20:26:00,83.5,76.3,29.70,SSW,209,1.0,1.0,79,0.00,,,0.00,Wunderground v.1.15,2013-07-20 00:26:00,
2013-07-19 20:31:00,83.3,76.1,29.70,SSW,209,0.0,1.0,79,0.00,,,0.00,Wunderground v.1.15,2013-07-20 00:31:00,
2013-07-19 20:37:00,83.1,75.9,29.70,SSW,209,0.0,2.0,79,0.00,,,0.00,Wunderground v.1.15,2013-07-20 00:37:00,
2013-07-19 20:42:00,83.0,76.2,29.70,SSW,209,0.0,2.0,80,0.00,,,0.00,Wunderground v.1.15,2013-07-20 00:42:00,
2013-07-19 20:48:00,82.8,76.0,29.70,SSW,209,0.0,0.0,80,0.00,,,0.00,Wunderground v.1.15,2013-07-20 00:48:00,
2013-07-19 20:53:00,82.7,75.9,29.70,SSW,209,0.0,0.0,80,0.00,,,0.00,Wunderground v.1.15,2013-07-20 00:53:00,
2013-07-19 20:59:00,82.4,76.0,29.70,SSW,209,0.0,0.0,81,0.00,,,0.00,Wunderground v.1.15,2013-07-20 00:59:00,
2013-07-19 21:05:00,82.2,75.8,29.69,SSW,209,0.0,0.0,81,0.00,,,0.00,Wunderground v.1.15,2013-07-20 01:05:00,
2013-07-19 21:10:00,82.0,75.6,29.69,SSW,209,0.0,0.0,81,0.00,,,0.00,Wunderground v.1.15,2013-07-20 01:10:00,
2013-07-19 21:16:00,81.7,75.3,29.69,SSW,209,0.0,0.0,81,0.00,,,0.00,Wunderground v.1.15,2013-07-20 01:16:00,
2013-07-19 21:21:00,81.5,75.1,29.69,SSW,209,0.0,0.0,81,0.00,,,0.00,Wunderground v.1.15,2013-07-20 01:21:00,
2013-07-19 21:27:00,81.1,74.7,29.69,SSW,209,0.0,2.0,81,0.00,,,0.00,Wunderground v.1.15,2013-07-20 01:27:00,
2013-07-19 21:32:00,80.9,74.1,29.69,SSW,209,0.0,2.0,80,0.00,,,0.00,Wunderground v.1.15,2013-07-20 01:32:00,
2013-07-19 21:38:00,80.8,73.7,29.69,SW,221,0.0,2.0,79,0.00,,,0.00,Wunderground v.1.15,2013-07-20 01:38:00,
2013-07-19 21:44:00,80.9,73.0,29.69,WSW,247,1.0,6.0,77,0.00,,,0.00,Wunderground v.1.15,2013-07-20 01:44:00,
2013-07-19 21:49:00,81.0,72.7,29.69,WSW,246,0.0,1.0,76,0.00,,,0.00,Wunderground v.1.15,2013-07-20 01:49:00,
2013-07-19 21:50:00,81.0,72.7,29.69,WSW,247,0.0,1.0,76,0.00,,,0.00,Wunderground v.1.15,2013-07-20 01:50:00,
2013-07-19 21:55:00,81.0,72.3,29.69,WSW,254,0.0,1.0,75,0.00,,,0.00,Wunderground v.1.15,2013-07-20 01:55:00,
2013-07-19 22:00:00,81.0,72.3,29.69,WSW,254,0.0,0.0,75,0.00,,,0.00,Wunderground v.1.15,2013-07-20 02:00:00,
2013-07-19 22:06:00,81.0,72.3,29.69,WSW,253,0.0,1.0,75,0.00,,,0.00,Wunderground v.1.15,2013-07-20 02:06:00,
2013-07-19 22:11:00,80.9,72.2,29.70,WSW,254,0.0,1.0,75,0.00,,,0.00,Wunderground v.1.15,2013-07-20 02:11:00,
2013-07-19 22:17:00,80.8,72.1,29.70,WSW,254,0.0,0.0,75,0.00,,,0.00,Wunderground v.1.15,2013-07-20 02:17:00,
2013-07-19 22:22:00,80.7,71.6,29.70,WSW,254,0.0,0.0,74,0.00,,,0.00,Wunderground v.1.15,2013-07-20 02:22:00,
2013-07-19 22:28:00,80.6,71.9,29.70,WSW,253,0.0,0.0,75,0.00,,,0.00,Wunderground v.1.15,2013-07-20 02:28:00,
2013-07-19 22:33:00,80.5,71.8,29.70,WSW,254,0.0,0.0,75,0.00,,,0.00,Wunderground v.1.15,2013-07-20 02:33:00,
2013-07-19 22:39:00,80.3,72.0,29.70,WSW,254,0.0,0.0,76,0.00,,,0.00,Wunderground v.1.15,2013-07-20 02:39:00,
2013-07-19 22:45:00,80.2,71.9,29.70,WSW,254,0.0,0.0,76,0.00,,,0.00,Wunderground v.1.15,2013-07-20 02:45:00,
2013-07-19 22:50:00,80.1,71.8,29.70,WSW,254,0.0,0.0,76,0.00,,,0.00,Wunderground v.1.15,2013-07-20 02:50:00,
2013-07-19 22:56:00,79.9,71.7,29.70,WSW,253,0.0,0.0,76,0.00,,,0.00,Wunderground v.1.15,2013-07-20 02:56:00,
2013-07-19 23:02:00,79.7,72.2,29.70,WSW,254,0.0,0.0,78,0.00,,,0.00,Wunderground v.1.15,2013-07-20 03:02:00,
2013-07-19 23:08:00,79.6,72.1,29.71,WSW,253,0.0,0.0,78,0.00,,,0.00,Wunderground v.1.15,2013-07-20 03:08:00,
2013-07-19 23:13:00,79.4,72.7,29.70,WSW,257,0.0,2.0,80,0.17,,,0.01,Wunderground v.1.15,2013-07-20 03:13:00,
2013-07-19 23:19:00,79.1,72.4,29.70,West,272,1.0,4.0,80,0.06,,,0.01,Wunderground v.1.15,2013-07-20 03:19:00,
2013-07-19 23:25:00,78.9,72.6,29.69,West,272,1.0,4.0,81,0.04,,,0.01,Wunderground v.1.15,2013-07-20 03:25:00,
2013-07-19 23:30:00,78.7,72.7,29.69,West,272,0.0,1.0,82,0.00,,,0.01,Wunderground v.1.15,2013-07-20 03:30:00,
2013-07-19 23:36:00,78.4,73.2,29.69,West,272,0.0,0.0,84,0.00,,,0.01,Wunderground v.1.15,2013-07-20 03:36:00,
2013-07-19 23:41:00,78.0,72.8,29.69,West,272,0.0,0.0,84,0.00,,,0.01,Wunderground v.1.15,2013-07-20 03:41:00,
2013-07-19 23:47:00,77.6,73.1,29.70,West,272,0.0,0.0,86,0.00,,,0.01,Wunderground v.1.15,2013-07-20 03:47:00,
2013-07-19 23:52:00,77.3,72.8,29.70,WNW,295,0.0,6.0,86,0.00,,,0.01,Wunderground v.1.15,2013-07-20 03:52:00,
2013-07-19 23:58:00,77.7,72.5,29.71,WNW,291,3.0,3.0,84,0.00,,,0.01,Wunderground v.1.15,2013-07-20 03:58:00,